Tracking 19293 objects as of 21-Nov-2018
HD Live streaming from Space Station
objects crossing your sky now

RADUGA 2

Track RADUGA 2 now!
RADUGA 2 is classified as:


NORAD ID: 9416
Int'l Code: 1976-092A
Perigee: 35,660.7 km
Apogee: 35,919.6 km
Inclination: 10.2 °
Period: 1,435.9 minutes
Semi major axis: 42161 km
RCS: 0.1428 m2 (medium)
Launch date: September 11, 1976
Source: Commonwealth of Independent States (former USSR) (CIS)
Launch site: TYURATAM MISSILE AND SPACE COMPLEX (TTMTR)
aabbcc
Your satellite tracking list
Your tracking list is empty




NASA's NSSDC Master Catalog

Two Line Element Set (TLE):
1  9416U 76092A   18324.54057545 -.00000196 +00000-0 +00000-0 0  9994
2  9416 010.1545 307.6522 0030700 318.5316 073.2539 01.00284537101618
Source of the keplerian elements: AFSPC